Volver al catálogo

STARLINK-11204

ActivoComunicacionesVLEO
NORAD 60931·PAYLOAD·🇺🇸 United States

Lanzado Aug 31, 2024 desde Vandenberg Space Force Base

Loading…

Próximos Pases (próximas 24 horas)

TLE

ActualizadoSource: CelesTrak SupGP

Época: Sep 15, 2026, 01:57 UTC

1 60931C 24155H   26258.08173611  .00047288  00000+0  38948-3 0  2587
2 60931  53.1567 127.4681 0001141  88.2585 163.0661 15.69688377    14

Sigue STARLINK-11204 en tiempo real con AllMySat

Download on the App Store